Weather History for Richmond, KY

Change the Weather History Date:

Thursday, June 6, 2013

  Actual Average (KLOZ) Record (KLOZ)
Temperature  
Mean Temperature 71 °F 70 °F  
Max Temperature 78 °F 81 °F 94 °F (2008)
Min Temperature 64 °F 60 °F 45 °F (1993)
Degree Days  
Heating Degree Days 0 1  
Month to date heating degree days 6  
Since 1 June heating degree days 6  
Since 1 July heating degree days 4202  
Cooling Degree Days 6 6  
Month to date cooling degree days 33  
Year to date cooling degree days 147  
Since 1 June cooling degree days 33  
Growing Degree Days 21 (Base 50)    
Moisture  
Dew Point 63 °F    
Average Humidity 76    
Maximum Humidity 88    
Minimum Humidity 57    
Precipitation  
Precipitation 0.00 in 0.15 in 2.57 in (1981)
Month to date precipitation 0.95  
Year to date precipitation 21.48  
Sea Level Pressure  
Sea Level Pressure 29.83 in    
Wind  
Wind Speed 7 mph (SW)    
Max Wind Speed 16 mph    
Max Gust Speed 22 mph    
Visibility 10 miles    
Events      
T = Trace of Precipitation, MM = Missing Value Source: NWS Daily Summary

Daily Weather History Graph

Daily Weather History Graph

Search for Another Location

Airport:

Trip Planner

Search our weather history database for the weather conditions in past years. The results will help you decide how hot, cold, wet, or windy it might be!

Date:

Astronomy

Jun. 06, 2013 Rise Set
Actual Time 6:15 AM EDT 8:56 PM EDT
Civil Twilight 5:45 AM EDT 9:27 PM EDT
Nautical Twilight 5:06 AM EDT 10:05 PM EDT
Astronomical Twilight 4:23 AM EDT 10:49 PM EDT
Moon 4:55 AM EDT (6/6) 7:18 PM EDT (6/6)
Length of Visible Light 15h 42m
Length of Day
14h 40m
Waning Crescent, 4% of the Moon is Illuminated
Jun 6
Waning Crescent
Jun 8
New
Jun 16
First Quarter
Jun 23
Full
Jun 30
Last Quarter

Hourly Weather History & Observations

Time (EDT) Temp. Dew Point Humidity Pressure Visibility Wind Dir Wind Speed Gust Speed Precip Events Conditions
12:15 AM 68.0 °F 64.4 °F 88% 29.91 in 10.0 mi SSE 4.6 mph - N/A   Overcast
12:35 AM 68.0 °F 64.4 °F 88% 29.91 in 10.0 mi South 5.8 mph - N/A   Overcast
12:55 AM 68.0 °F 64.4 °F 88% 29.90 in 10.0 mi South 6.9 mph - N/A   Scattered Clouds
1:15 AM 68.0 °F 64.4 °F 88% 29.90 in 10.0 mi South 8.1 mph - N/A   Overcast
1:35 AM 68.0 °F 62.6 °F 83% 29.89 in 10.0 mi South 8.1 mph - N/A   Mostly Cloudy
1:55 AM 66.2 °F 62.6 °F 88% 29.89 in 10.0 mi South 8.1 mph - N/A   Scattered Clouds
2:15 AM 66.2 °F 62.6 °F 88% 29.88 in 10.0 mi South 8.1 mph - N/A   Scattered Clouds
2:35 AM 66.2 °F 62.6 °F 88% 29.87 in 10.0 mi South 6.9 mph - N/A   Scattered Clouds
2:55 AM 66.2 °F 62.6 °F 88% 29.87 in 10.0 mi South 8.1 mph - N/A   Clear
3:15 AM 66.2 °F 62.6 °F 88% 29.87 in 10.0 mi South 8.1 mph - N/A   Scattered Clouds
3:35 AM 66.2 °F 62.6 °F 88% 29.86 in 10.0 mi South 5.8 mph - N/A   Scattered Clouds
3:55 AM 66.2 °F 62.6 °F 88% 29.86 in 10.0 mi South 8.1 mph - N/A   Clear
4:15 AM 66.2 °F 60.8 °F 83% 29.85 in 10.0 mi South 8.1 mph - N/A   Clear
4:35 AM 66.2 °F 60.8 °F 83% 29.85 in 10.0 mi South 9.2 mph - N/A   Clear
4:55 AM 64.4 °F 60.8 °F 88% 29.85 in 10.0 mi South 10.4 mph - N/A   Clear
5:15 AM 64.4 °F 60.8 °F 88% 29.85 in 10.0 mi South 6.9 mph - N/A   Clear
5:35 AM 64.4 °F 60.8 °F 88% 29.85 in 10.0 mi South 8.1 mph - N/A   Scattered Clouds
5:55 AM 66.2 °F 62.6 °F 88% 29.85 in 10.0 mi SSW 9.2 mph - N/A   Mostly Cloudy
6:15 AM 66.2 °F 60.8 °F 83% 29.85 in 10.0 mi South 6.9 mph - N/A   Overcast
6:35 AM 66.2 °F 60.8 °F 83% 29.85 in 10.0 mi South 5.8 mph - N/A   Mostly Cloudy
6:55 AM 66.2 °F 62.6 °F 88% 29.85 in 10.0 mi South 6.9 mph - N/A   Scattered Clouds
7:15 AM 66.2 °F 62.6 °F 88% 29.85 in 10.0 mi South 4.6 mph - N/A   Mostly Cloudy
7:35 AM 66.2 °F 62.6 °F 88% 29.85 in 10.0 mi SSE 4.6 mph - N/A   Mostly Cloudy
7:55 AM 66.2 °F 62.6 °F 88% 29.85 in 10.0 mi South 5.8 mph - N/A   Overcast
8:15 AM 68.0 °F 62.6 °F 83% 29.85 in 10.0 mi South 6.9 mph - N/A   Overcast
8:35 AM 68.0 °F 62.6 °F 83% 29.84 in 10.0 mi South 5.8 mph - N/A   Scattered Clouds
8:55 AM 68.0 °F 62.6 °F 83% 29.83 in 10.0 mi South 4.6 mph - N/A   Scattered Clouds
9:15 AM 69.8 °F 62.6 °F 78% 29.83 in 10.0 mi South 6.9 mph - N/A   Scattered Clouds
9:35 AM 71.6 °F 64.4 °F 78% 29.83 in 10.0 mi South 9.2 mph - N/A   Scattered Clouds
9:55 AM 71.6 °F 64.4 °F 78% 29.84 in 10.0 mi SW 9.2 mph - N/A   Mostly Cloudy
10:15 AM 71.6 °F 64.4 °F 78% 29.84 in 10.0 mi SW 5.8 mph - N/A   Overcast
10:35 AM 71.6 °F 62.6 °F 73% 29.84 in 10.0 mi SSW 8.1 mph - N/A   Overcast
10:55 AM 69.8 °F 62.6 °F 78% 29.85 in 10.0 mi SSW 9.2 mph - N/A   Overcast
11:15 AM 69.8 °F 64.4 °F 83% 29.85 in 10.0 mi SW 6.9 mph - N/A   Overcast
11:35 AM 71.6 °F 64.4 °F 78% 29.84 in 10.0 mi SW 8.1 mph - N/A   Overcast
11:55 AM 71.6 °F 64.4 °F 78% 29.84 in 10.0 mi SW 9.2 mph 17.3 mph N/A   Overcast
12:15 PM 71.6 °F 64.4 °F 78% 29.84 in 7.0 mi WSW 11.5 mph - N/A   Overcast
12:35 PM 73.4 °F 62.6 °F 69% 29.84 in 10.0 mi WSW 16.1 mph 21.9 mph N/A   Overcast
12:55 PM 75.2 °F 62.6 °F 65% 29.84 in 10.0 mi WSW 11.5 mph 18.4 mph N/A   Overcast
1:15 PM 75.2 °F 62.6 °F 65% 29.83 in 10.0 mi West 12.7 mph - N/A   Overcast
1:35 PM 77.0 °F 62.6 °F 61% 29.83 in 10.0 mi WSW 12.7 mph 19.6 mph N/A   Overcast
1:55 PM 75.2 °F 62.6 °F 65% 29.82 in 10.0 mi West 10.4 mph 19.6 mph N/A   Overcast
2:15 PM 77.0 °F 62.6 °F 61% 29.82 in 10.0 mi West 10.4 mph - N/A   Overcast
2:35 PM 77.0 °F 62.6 °F 61% 29.82 in 10.0 mi West 13.8 mph 18.4 mph N/A   Mostly Cloudy
2:55 PM 77.0 °F 62.6 °F 61% 29.81 in 10.0 mi WNW 9.2 mph - N/A   Mostly Cloudy
3:15 PM 77.0 °F 62.6 °F 61% 29.81 in 10.0 mi West 6.9 mph 10.4 mph N/A   Overcast
3:35 PM 77.0 °F 62.6 °F 61% 29.81 in 10.0 mi West 9.2 mph - N/A   Overcast
3:55 PM 75.2 °F 64.4 °F 69% 29.81 in 10.0 mi WNW 8.1 mph - N/A   Overcast
4:15 PM 75.2 °F 62.6 °F 65% 29.81 in 10.0 mi West 10.4 mph - N/A   Overcast
4:35 PM 77.0 °F 62.6 °F 61% 29.81 in 10.0 mi WNW 9.2 mph - N/A   Overcast
4:55 PM 78.8 °F 62.6 °F 57% 29.80 in 10.0 mi West 6.9 mph - N/A   Scattered Clouds
5:15 PM 77.0 °F 62.6 °F 61% 29.80 in 10.0 mi WNW 8.1 mph - N/A   Mostly Cloudy
5:35 PM 77.0 °F 60.8 °F 57% 29.80 in 10.0 mi West 9.2 mph - N/A   Mostly Cloudy
5:55 PM 77.0 °F 62.6 °F 61% 29.79 in 10.0 mi WNW 6.9 mph - N/A   Mostly Cloudy
6:15 PM 77.0 °F 62.6 °F 61% 29.79 in 10.0 mi WNW 10.4 mph - N/A   Mostly Cloudy
6:35 PM 77.0 °F 62.6 °F 61% 29.78 in 10.0 mi WNW 5.8 mph - N/A   Overcast
6:55 PM 77.0 °F 60.8 °F 57% 29.78 in 10.0 mi WNW 5.8 mph - N/A   Scattered Clouds
7:15 PM 77.0 °F 60.8 °F 57% 29.79 in 10.0 mi WNW 9.2 mph - N/A   Clear
7:35 PM 75.2 °F 60.8 °F 61% 29.79 in 10.0 mi WNW 5.8 mph - N/A   Clear
7:55 PM 75.2 °F 62.6 °F 65% 29.79 in 7.0 mi WNW 5.8 mph - N/A   Clear
8:15 PM 73.4 °F 62.6 °F 69% 29.79 in 10.0 mi WNW 4.6 mph - N/A   Clear
8:35 PM 73.4 °F 64.4 °F 73% 29.79 in 7.0 mi Calm Calm - N/A   Scattered Clouds
8:55 PM 71.6 °F 62.6 °F 73% 29.79 in 7.0 mi Calm Calm - N/A   Scattered Clouds
9:15 PM 71.6 °F 64.4 °F 78% 29.79 in 7.0 mi Calm Calm - N/A   Clear
9:35 PM 71.6 °F 64.4 °F 78% 29.79 in 7.0 mi Calm Calm - N/A   Clear
9:55 PM 71.6 °F 64.4 °F 78% 29.80 in 10.0 mi Calm Calm - N/A   Scattered Clouds
10:15 PM 69.8 °F 64.4 °F 83% 29.80 in 7.0 mi NNE 4.6 mph - N/A   Mostly Cloudy
10:35 PM 69.8 °F 64.4 °F 83% 29.81 in 7.0 mi Calm Calm - N/A   Mostly Cloudy
10:55 PM 69.8 °F 62.6 °F 78% 29.81 in 7.0 mi NNE 3.5 mph - N/A   Mostly Cloudy
11:15 PM 69.8 °F 64.4 °F 83% 29.81 in 10.0 mi North 4.6 mph - N/A   Overcast
11:35 PM 68.0 °F 64.4 °F 88% 29.81 in 7.0 mi North 3.5 mph - N/A   Overcast
11:55 PM 68.0 °F 64.4 °F 88% 29.81 in 10.0 mi NNE 4.6 mph - N/A   Scattered Clouds